Oceana NAS, VA

6:39 PM EST on December 17, 2017 (GMT -0500)
Oceana Naval Air Station

Weather History for KNTU - January, 2012

Change the Weather History Date:

Wednesday, January 11, 2012

  Actual Average Record
Temperature  
Mean Temperature 42 °F -  
Max Temperature 54 °F 48 °F 73 °F (2008)
Min Temperature 30 °F 30 °F 17 °F (2015)
Degree Days  
Heating Degree Days 23    
Moisture  
Dew Point 47 °F    
Average Humidity 98    
Maximum Humidity 100    
Minimum Humidity 90    
Precipitation  
Precipitation 0.63 in - - ()
Sea Level Pressure  
Sea Level Pressure 29.83 in    
Wind  
Wind Speed 7 mph (ESE)    
Max Wind Speed 18 mph    
Max Gust Speed 28 mph    
Visibility 8 miles    
Events Rain    
Averages and records for this station are not official NWS values.
T = Trace of Precipitation, MM = Missing Value Source: NWS Daily Summary

Daily Weather History Graph

Daily Weather History Graph

Search for Another Location

Airport or City:

Trip Planner

Search our weather history database for the weather conditions in past years. The results will help you decide how hot, cold, wet, or windy it might be!

Date:

Astronomy

Jan. 11, 2012 Rise Set
Actual Time 7:17 AM EST 5:07 PM EST
Civil Twilight 6:48 AM EST 5:35 PM EST
Nautical Twilight 6:16 AM EST 6:07 PM EST
Astronomical Twilight 5:45 AM EST 6:38 PM EST
Moon 7:57 PM EST (1/11) 8:32 AM EST (1/11)
Length of Visible Light 10h 46m
Length of Day
9h 50m
Waning Gibbous, 93% of the Moon is Illuminated
Jan 11
Waning Gibbous
Jan 16
Last Quarter
Jan 23
New
Jan 30
First Quarter
Feb 7
Full

Hourly Weather History & Observations

Time (EST) Temp. Windchill Dew Point Humidity Pressure Visibility Wind Dir Wind Speed Gust Speed Precip Events Conditions
12:56 AM 35.1 °F - 35.1 °F 100% 30.04 in 10.0 mi Calm Calm - N/A   Overcast
1:56 AM 33.1 °F - 33.1 °F 100% 30.04 in 10.0 mi Calm Calm - N/A   Mostly Cloudy
2:56 AM 32.0 °F - 32.0 °F 100% 30.04 in 10.0 mi Calm Calm - N/A   Scattered Clouds
3:56 AM 32.0 °F - 32.0 °F 100% 30.04 in 10.0 mi Calm Calm - N/A   Mostly Cloudy
4:56 AM 30.9 °F 27.5 °F 30.9 °F 100% 30.02 in 9.0 mi East 3.5 mph - N/A   Mostly Cloudy
5:56 AM 32.0 °F - 32.0 °F 100% 30.02 in 9.0 mi Calm Calm - N/A   Mostly Cloudy
6:56 AM 33.1 °F - 33.1 °F 100% 30.02 in 10.0 mi Calm Calm - N/A   Overcast
7:56 AM 36.0 °F - 36.0 °F 100% 30.01 in 10.0 mi Calm Calm - N/A   Mostly Cloudy
8:56 AM 43.0 °F 41.3 °F 43.0 °F 100% 30.02 in 10.0 mi ESE 3.5 mph - N/A   Overcast
9:21 AM 44.6 °F 42.2 °F 42.8 °F 93% 30.02 in 10.0 mi East 4.6 mph - 0.00 in Rain Light Rain
9:56 AM 46.0 °F 43.1 °F 45.0 °F 96% 30.03 in 10.0 mi East 5.8 mph - 0.00 in Rain Light Rain
10:56 AM 46.9 °F - 44.1 °F 90% 30.00 in 10.0 mi ESE 8.1 mph - 0.01 in Rain Light Rain
11:18 AM 46.4 °F 43.5 °F 44.6 °F 93% 29.98 in 10.0 mi East 5.8 mph - 0.00 in   Overcast
11:56 AM 48.0 °F - 46.0 °F 93% 29.96 in 10.0 mi East 8.1 mph - 0.00 in   Overcast
12:26 PM 48.2 °F - 46.4 °F 93% 29.93 in 10.0 mi ESE 6.9 mph - 0.00 in Rain Light Rain
12:56 PM 48.0 °F - 46.9 °F 96% 29.90 in 10.0 mi East 11.5 mph - 0.01 in Rain Light Rain
1:56 PM 50.0 °F - 48.0 °F 93% 29.88 in 10.0 mi East 12.7 mph - 0.01 in   Overcast
2:08 PM 50.0 °F - 48.2 °F 94% 29.86 in 10.0 mi ESE 11.5 mph - N/A   Overcast
2:49 PM 50.0 °F - 48.2 °F 94% 29.84 in 10.0 mi East 10.4 mph - 0.00 in Rain Light Rain
2:56 PM 50.0 °F - 48.9 °F 96% 29.85 in 10.0 mi East 10.4 mph - 0.00 in Rain Light Rain
3:56 PM 51.1 °F - 51.1 °F 100% 29.82 in 5.0 mi ESE 13.8 mph - 0.06 in Rain Light Rain
4:02 PM 51.8 °F - 51.8 °F 100% 29.80 in 2.5 mi ESE 15.0 mph 21.9 mph 0.01 in Rain Light Rain
4:16 PM 51.8 °F - 51.8 °F 100% 29.79 in 2.5 mi ESE 17.3 mph - 0.02 in Rain Light Rain
4:26 PM 51.8 °F - 51.8 °F 100% 29.79 in 3.0 mi ESE 18.4 mph - 0.02 in Rain Light Rain
4:56 PM 52.0 °F - 52.0 °F 100% 29.78 in 5.0 mi ESE 16.1 mph - 0.05 in Rain Light Rain
5:09 PM 51.8 °F - 51.8 °F 100% 29.77 in 10.0 mi ESE 15.0 mph - 0.00 in Rain Light Rain
5:40 PM 51.8 °F - 51.8 °F 100% 29.75 in 4.0 mi ESE 15.0 mph 24.2 mph 0.06 in Rain Rain
5:56 PM 53.1 °F - 53.1 °F 100% 29.75 in 4.0 mi SE 15.0 mph - 0.10 in Rain Light Rain
6:14 PM 53.6 °F - 53.6 °F 100% 29.74 in 3.0 mi SE 16.1 mph 24.2 mph 0.06 in Rain Rain
6:22 PM 53.6 °F - 53.6 °F 100% 29.75 in 3.0 mi SE 16.1 mph 25.3 mph 0.07 in Rain Light Rain
6:40 PM 53.6 °F - 53.6 °F 100% 29.73 in 2.0 mi SE 18.4 mph 27.6 mph 0.14 in Rain Rain
6:56 PM 53.1 °F - 53.1 °F 100% 29.72 in 4.0 mi SE 16.1 mph 25.3 mph 0.16 in Rain Light Rain
7:56 PM 54.0 °F - 54.0 °F 100% 29.71 in 1.0 mi SSE 12.7 mph - 0.10 in Rain Heavy Rain
8:14 PM 53.6 °F - 53.6 °F 100% 29.69 in 3.0 mi SSE 16.1 mph - N/A Rain Light Rain
8:56 PM 53.1 °F - 53.1 °F 100% 29.67 in 4.0 mi SSE 9.2 mph - 0.10 in Rain Light Rain
9:25 PM 53.6 °F - 53.6 °F 100% 29.62 in 10.0 mi SE 11.5 mph - 0.03 in Rain Light Rain
9:49 PM 53.6 °F - 53.6 °F 100% 29.61 in 10.0 mi SE 11.5 mph - 0.03 in   Overcast
9:56 PM 53.1 °F - 53.1 °F 100% 29.62 in 10.0 mi SE 12.7 mph - 0.03 in   Overcast
10:19 PM 53.6 °F - 53.6 °F 100% 29.59 in 9.0 mi SE 12.7 mph - 0.00 in Rain Light Rain
10:38 PM 53.6 °F - 53.6 °F 100% 29.56 in 9.0 mi SE 13.8 mph - 0.00 in   Mostly Cloudy
10:56 PM 53.1 °F - 53.1 °F 100% 29.56 in 10.0 mi SE 9.2 mph - 0.00 in   Mostly Cloudy
11:56 PM 52.0 °F - 52.0 °F 100% 29.53 in 10.0 mi SSE 9.2 mph - 0.00 in Rain Light Rain